Home   Weather   13°10'N, 77°43'E   Past weeks
Flag for India

Past Weather in 13°10'N, 77°43'E, India — Yesterday and Last 2 Weeks

Now
93 °F

Scattered clouds.


Feels Like: 98 °F
Forecast: 92 / 72 °F
Wind: 5 mph from Southeast

Location: Bangalore / Hindustan

Current Time: May 20, 2019 at 4:21:41 pm

Latest Report: May 20, 2019 at 3:30 pm


Visibility: 5 mi

Pressure: 29.86 "Hg

Humidity: 44%

Dew Point: 68 °F

Location of 13°10'N, 77°43'ELocation

Past Weather in 13°10'N, 77°43'E — Graph

°F

13°10'N, 77°43'E Temperature Yesterday

Maximum temperature yesterday: 93 °F (at 3:30 pm)
Minimum temperature yesterday: 75 °F (at 5:30 am)
Average temperature yesterday: 85 °F

High & Low Weather Summary for the Past Weeks

 TemperatureHumidityPressure
High97 °F (May 5, 3:30 pm)94% (May 12, 5:30 am)30.01 "Hg (May 12, 5:30 am)
Low70 °F (May 7, 8:30 pm)23% (May 6, 4:30 pm)29.80 "Hg (May 10, 4:30 pm)
Average84 °F60%29.92 "Hg
* Reported May 5 2:30 pm — May 20 3:00 pm, 13°10'N, 77°43'E. Weather by CustomWeather, © 2019

Note: Actual official high and low records may vary slightly from our data, if they occured in-between our weather recording intervals... More about our weather records

Advertising

13°10'N, 77°43'E Weather History for the Previous 24 Hours

Scroll right to see more
 ConditionsComfort  
Time TempWeatherWind HumidityBarometerVisibility
3:00 pm
Mon, May 20
91 °FScattered clouds.5 mph49%29.89 "Hg5 mi
2:30 pm91 °FScattered clouds.6 mph46%29.89 "Hg5 mi
2:00 pm93 °FScattered clouds.5 mph49%29.92 "Hg5 mi
1:30 pm91 °FPassing clouds.7 mph49%29.92 "Hg5 mi
1:00 pm90 °FPassing clouds.6 mph55%29.95 "Hg5 mi
12:30 pm90 °FPassing clouds.6 mph55%29.95 "Hg5 mi
12:00 pm90 °FPassing clouds.6 mph55%29.95 "Hg5 mi
11:30 am88 °FPassing clouds.8 mph59%29.98 "Hg5 mi
11:00 am88 °FClear.8 mph55%29.98 "Hg5 mi
10:30 am86 °FClear.8 mph62%29.98 "Hg5 mi
10:00 am82 °FClear.8 mph70%29.98 "Hg5 mi
9:30 am81 °FClear.7 mph74%29.98 "Hg5 mi
9:00 am81 °FClear.6 mph74%29.98 "Hg4 mi
8:30 am81 °FClear.3 mph79%29.98 "Hg4 mi
8:00 am81 °FScattered clouds.3 mph79%29.98 "Hg4 mi
7:30 am77 °FScattered clouds.3 mph89%29.95 "Hg4 mi
7:00 am77 °FPassing clouds.3 mph89%29.95 "Hg4 mi
6:30 am77 °FPassing clouds.3 mph89%29.98 "Hg4 mi
6:00 am77 °FPassing clouds.3 mph89%29.95 "Hg5 mi
5:30 am77 °FPassing clouds.3 mph89%29.92 "Hg5 mi
11:30 pm
Sun, May 19
82 °FPassing clouds.3 mph58%29.95 "Hg5 mi
10:30 pm82 °FPassing clouds.7 mph58%29.95 "Hg5 mi
9:30 pm84 °FPassing clouds.3 mph55%29.95 "Hg5 mi
8:30 pm82 °FPassing clouds.3 mph62%29.92 "Hg5 mi
7:30 pm84 °FPassing clouds.3 mph62%29.89 "Hg5 mi
6:30 pm86 °FPassing clouds.3 mph59%29.89 "Hg5 mi
5:30 pm91 °FPassing clouds.3 mph34%29.86 "Hg5 mi
5:00 pm91 °FPassing clouds.7 mph34%29.83 "HgN/A
4:30 pm93 °FPassing clouds.7 mph32%29.83 "HgN/A
4:00 pm93 °FPassing clouds.7 mph32%29.83 "HgN/A
Weather by CustomWeather, © 2019

See weather overview